Hourly Data Report for September 05, 2017

All times are specified in Local Standard Time (LST). Add 1 hour to adjust for Daylight Saving Time where and when it is observed.

EDMUNDSTON
NEW BRUNSWICK

47°25'00.000" N
68°19'28.040" W
154.20 m
8101303
71590
ERM

Download Data

Hourly Data (September 2017)
Hourly Data Report for September 5, 2017
Temp Definition
°C
Dew Point Temp Definition
°C
Rel Hum Definition
%
Wind Dir Definition
10's deg

Wind Spd Definition
km/h
Visibility Definition
km
Stn Press Definition
kPa
Hmdx Definition


Wind Chill Definition


Weather Definition


TIME
00:00 16.9 13.4 80 15 11   98.46     LegendNANA
01:00 17.0 13.4 79 14 9   98.45     LegendNANA
02:00 16.1 13.7 86 16 7   98.44     LegendNANA
03:00 15.2 13.5 90 11 2   98.38     LegendNANA
04:00 15.4 13.7 90 15 7   98.32     LegendNANA
05:00 15.6 13.6 88 16 8   98.25     LegendNANA
06:00 15.7 13.5 87 17 7   98.28     LegendNANA
07:00 16.2 13.7 85 15 8   98.31     LegendNANA
08:00 16.7 14.0 84 15 9   98.34     LegendNANA
09:00 17.1 14.3 84 15 11   98.36     LegendNANA
10:00 17.7 14.7 83 16 5   98.46     LegendNANA
11:00 19.2 15.6 80 15 7   98.51     LegendNANA
12:00 21.4 15.8 70 18 8   98.52 26   LegendNANA
13:00 22.2 15.5 66 18 10   98.55 26   LegendNANA
14:00 23.1 14.8 60 24 10   98.60 27   LegendNANA
15:00 22.5 13.4 56 24 10   98.64 26   LegendNANA
16:00 21.2 16.2 73 0 1   98.72 26   LegendNANA
17:00 20.2 15.4 74 15 6   98.79     LegendNANA
18:00 18.7 16.1 85 15 7   98.85     LegendNANA
19:00 17.9 16.6 92 15 6   98.86     LegendNANA
20:00 17.4 15.9 91 9 2   98.94     LegendNANA
21:00 17.2 15.5 90 15 5   99.01     LegendNANA
22:00 16.1 14.7 92 15 6   99.02     LegendNANA
23:00 15.1 14.1 93 12 3   99.02     LegendNANA

Notes on Data Quality.

Legend

  • E = Estimated
  • M = Missing
  • NA = Not Available
  • ‡ = Partner data that is not subject to review by the National Climate Archives
Date modified: